Temp
19 26 27 27 24 27 14 20 16 27 28 31 34 36 36 38 39 40 40 41 41 42 42 43 43 44 45 45 46 47 46 46 45 46 48 50 50 51 54 55 57 58 60 64
19 29 28 26 29 29 30 30 27 29 28 36 38 39 38 38 39 39 40 41 42 43 44 44 44 44 44 43 44 45 44 44 47 47 47 47 49 49 51 51 53 56 57 59
13 26 26 15 27 29 32 33 30 22 30 35 34 37 38 38 39 39 40 41 42 43 43 44 44 45 42 42 43 43 43 44 44 45 45 45 47 48 48 48 50 53 54 56
10 22 1 28 36 36 32 33 33 32 34 36 37 38 39 39 38 39 41 42 42 42 43 44 43 43 43 44 43 42 42 42 43 44 44 45 45 45 46 47 47 48 51 52
8 13 23 30 34 33 30 30 36 33 36 37 38 37 36 42 41 41 41 43 42 42 43 42 42 43 43 43 42 41 41 41 42 43 43 43 43 43 44 46 46 47 48 49
12 5 5 24 34 39 36 23 37 36 35 35 34 27 30 40 41 42 43 43 43 44 43 42 42 43 41 41 40 40 41 41 42 42 42 41 42 42 43 44 45 46 46 46
14 11 23 35 38 40 24 21 35 37 37 36 31 33 38 40 41 42 42 43 43 42 41 41 41 41 40 39 38 41 41 41 41 41 41 41 40 41 41 41 43 43 43 44
13 4 12 38 37 30 33 36 38 38 38 37 37 39 40 41 41 42 41 42 43 41 41 41 41 41 38 37 39 40 40 40 40 40 41 41 39 38 40 39 40 39 40 40
22 22 34 38 38 41 41 38 39 39 40 39 38 39 41 40 41 41 41 40 41 39 40 40 40 40 38 38 39 39 38 38 39 39 40 41 38 36 37 38 37 37 36 36
27 33 34 37 38 40 41 39 42 42 41 41 39 40 39 39 39 39 39 39 40 38 37 37 38 39 38 39 39 38 36 36 38 37 38 39 38 37 36 35 35 36 35 35
28 34 35 37 38 39 40 42 41 42 42 41 40 40 40 38 38 38 37 37 37 36 35 36 37 36 37 37 37 35 36 36 36 38 38 37 37 36 36 37 35 34 34 34
25 36 33 35 38 41 39 40 41 42 40 42 41 39 39 37 37 36 36 36 35 34 34 34 35 34 35 35 35 33 34 37 36 37 37 36 35 35 37 36 37 36 36 34
34 40 39 39 40 41 39 41 43 42 41 40 37 38 37 36 36 36 35 35 34 33 33 33 33 33 34 34 34 33 34 37 36 36 36 34 34 33 32 35 38 38 37 37
38 37 34 37 36 41 40 41 43 41 41 39 38 37 36 35 34 34 33 33 34 33 32 32 31 32 33 32 32 33 35 36 36 35 34 34 34 33 33 32 32 33 36 36
39 40 39 41 41 40 41 41 38 37 37 36 37 35 34 33 32 33 33 34 33 31 29 31 30 30 32 32 31 33 36 35 34 34 34 34 33 33 33 33 33 33 34 35
40 39 39 37 38 40 39 38 36 35 35 34 33 33 33 33 32 32 33 32 31 30 31 28 28 31 31 32 34 35 35 34 34 34 34 33 32 32 32 33 33 33 33 34
34 34 35 34 36 38 38 38 38 37 36 34 34 34 33 32 31 31 31 31 30 29 29 29 29 31 31 32 35 35 34 34 33 33 33 33 32 32 32 32 32 32 33 34
39 40 41 39 37 37 36 36 36 36 34 34 34 31 26 23 27 25 25 29 32 28 29 30 30 31 32 34 35 34 33 33 33 31 32 32 32 32 32 32 32 32 33 34
38 38 38 38 37 36 35 35 36 34 31 30 27 26 27 25 29 29 29 27 30 30 31 32 30 32 33 32 31 31 32 32 32 32 32 31 31 32 32 32 32 32 33 33
36 37 37 37 38 36 33 34 34 33 33 31 24 21 22 21 21 22 26 25 31 31 31 30 32 31 31 30 29 32 32 32 31 31 31 31 31 31 32 32 32 32 32 32
34 34 35 35 34 32 28 27 26 28 29 25 22 22 20 23 23 21 21 24 29 30 28 28 29 29 29 28 29 31 31 31 31 30 30 30 31 31 31 31 32 32 32 32
33 31 31 30 30 29 29 28 29 25 23 20 18 15 15 22 22 21 22 26 28 24 27 28 29 31 31 30 30 30 31 31 30 30 30 31 30 30 30 31 31 31 32 32
33 32 32 31 30 29 29 31 31 28 26 22 21 22 22 24 23 19 23 26 25 25 25 27 26 29 30 30 29 30 30 30 30 30 30 31 31 31 31 31 31 32 31 32
33 32 32 32 29 27 29 31 29 27 25 25 26 31 27 19 19 23 24 21 18 19 24 25 26 28 29 29 27 28 29 29 30 30 31 31 31 31 31 31 31 31 31 31
31 30 29 29 30 30 30 31 30 26 25 26 26 22 21 23 20 19 18 19 18 20 22 22 21 21 25 26 27 28 29 29 29 30 31 30 30 30 30 30 30 30 30 30
31 31 31 32 32 32 31 29 28 28 27 24 21 19 19 17 18 17 18 15 18 17 19 21 22 23 23 24 25 27 28 29 29 30 31 30 30 30 30 30 29 28 28 28
29 27 27 27 28 28 29 27 27 27 26 24 22 21 16 14 12 14 12 12 13 13 15 18 19 20 20 21 24 27 27 28 29 30 30 29 30 29 27 27 27 27 27 26
MSLP
1034.35 1033.94 1034.07 1033.85 1033.57 1033.63 1034.19 1032.97 1032.78 1029.93 1028.90 1027.37 1026.63 1025.93 1025.42 1025.21 1024.83 1024.53 1024.21 1023.67 1023.18 1022.86 1022.32 1021.79 1021.27 1020.84 1020.33 1019.96 1019.46 1018.78 1018.45 1017.78 1016.93 1016.25 1015.50 1014.61 1013.74 1012.71 1011.45 1010.25 1009.11 1007.76 1007.16 1007.58
1034.08 1033.16 1032.94 1032.53 1031.64 1031.30 1030.87 1030.47 1030.27 1029.23 1028.30 1027.20 1026.02 1025.67 1025.36 1024.98 1024.82 1024.56 1024.14 1023.56 1023.01 1022.57 1022.14 1021.93 1021.53 1021.06 1020.61 1020.28 1019.79 1019.03 1018.54 1018.09 1017.32 1016.34 1015.54 1014.96 1014.07 1013.34 1012.01 1010.72 1009.51 1007.95 1006.52 1005.97
1034.21 1033.35 1032.67 1031.20 1029.23 1029.07 1028.57 1028.39 1028.26 1028.14 1027.05 1026.39 1026.06 1025.57 1025.15 1024.71 1024.45 1024.18 1023.75 1023.22 1022.91 1022.37 1022.17 1022.07 1021.62 1021.20 1020.67 1020.15 1019.67 1019.05 1018.51 1018.17 1017.35 1016.19 1015.61 1015.25 1014.64 1013.71 1012.24 1011.30 1010.16 1008.85 1007.37 1005.99
1034.81 1033.86 1032.33 1028.78 1027.53 1027.24 1027.27 1027.07 1026.96 1026.77 1026.30 1025.90 1025.48 1024.99 1024.66 1024.17 1024.11 1023.75 1023.30 1022.84 1022.57 1022.21 1021.88 1021.77 1021.56 1021.16 1020.67 1020.14 1019.49 1019.01 1018.68 1018.31 1017.63 1016.49 1016.04 1015.67 1015.08 1014.24 1012.87 1011.73 1010.87 1009.79 1008.39 1006.71
1034.77 1033.88 1030.84 1028.16 1026.44 1026.32 1026.42 1026.21 1025.76 1025.84 1025.56 1025.35 1025.02 1024.79 1024.33 1023.58 1023.16 1022.94 1022.71 1022.50 1022.10 1021.81 1021.68 1021.65 1021.48 1021.00 1020.52 1019.92 1019.67 1019.31 1018.87 1018.20 1017.63 1016.97 1016.49 1016.16 1015.71 1014.71 1013.47 1012.32 1011.13 1009.80 1008.87 1007.54
1034.42 1033.97 1031.01 1027.61 1026.19 1025.55 1025.86 1025.67 1024.82 1025.08 1025.01 1024.89 1024.90 1024.95 1024.34 1023.45 1023.05 1022.66 1022.33 1022.03 1021.76 1021.54 1021.55 1021.54 1021.39 1021.06 1020.58 1020.35 1020.14 1019.86 1019.14 1018.48 1018.08 1017.54 1016.91 1016.43 1015.95 1015.00 1014.09 1012.91 1011.48 1010.51 1009.63 1008.13
1033.39 1032.55 1029.27 1026.42 1025.39 1025.28 1025.79 1025.39 1024.52 1024.48 1024.33 1024.37 1024.61 1023.96 1023.47 1023.23 1022.65 1022.28 1021.97 1021.77 1021.62 1021.61 1021.69 1021.55 1021.41 1021.19 1020.99 1020.74 1020.46 1019.77 1019.24 1018.73 1018.22 1017.60 1017.20 1016.62 1015.97 1015.06 1014.10 1013.09 1012.05 1011.23 1010.12 1009.05
1032.26 1031.87 1028.58 1025.15 1024.85 1024.81 1024.37 1023.98 1023.86 1023.87 1023.73 1023.69 1023.51 1023.28 1023.20 1022.86 1022.51 1022.24 1022.05 1021.79 1021.71 1021.78 1021.69 1021.50 1021.47 1021.21 1020.98 1020.81 1020.37 1019.90 1019.41 1018.85 1018.32 1017.72 1017.13 1016.56 1015.85 1015.07 1014.32 1013.51 1012.87 1011.91 1010.77 1009.75
1029.11 1027.90 1025.88 1024.72 1024.14 1023.81 1023.62 1023.64 1023.38 1023.24 1023.07 1023.19 1023.25 1023.09 1022.86 1022.61 1022.43 1022.27 1022.23 1022.08 1021.89 1022.03 1021.87 1021.63 1021.50 1021.34 1021.12 1020.80 1020.32 1019.92 1019.34 1018.80 1018.22 1017.52 1016.85 1016.30 1015.85 1015.14 1014.44 1013.62 1012.97 1012.21 1011.54 1010.70
1027.47 1025.90 1025.08 1024.28 1023.95 1023.71 1023.45 1023.34 1022.94 1022.81 1022.56 1022.62 1022.51 1022.54 1022.56 1022.43 1022.40 1022.40 1022.38 1022.31 1022.17 1022.06 1022.05 1021.96 1021.73 1021.47 1021.12 1020.71 1020.26 1019.89 1019.34 1018.66 1018.10 1017.34 1016.65 1016.29 1015.96 1015.39 1014.73 1014.10 1013.27 1012.51 1011.79 1011.13
1026.30 1025.08 1024.68 1023.89 1023.59 1023.23 1022.98 1022.82 1022.62 1022.25 1021.97 1021.89 1021.95 1022.08 1022.20 1022.29 1022.46 1022.63 1022.61 1022.52 1022.43 1022.38 1022.24 1021.93 1021.75 1021.54 1021.18 1020.79 1020.42 1019.92 1019.23 1018.58 1018.00 1017.15 1016.47 1016.11 1015.85 1015.39 1014.75 1014.23 1013.72 1012.93 1012.24 1011.62
1025.07 1023.94 1024.28 1023.48 1023.04 1022.84 1022.59 1022.33 1021.98 1021.66 1021.26 1021.09 1021.47 1021.71 1021.88 1022.40 1022.58 1022.63 1022.64 1022.56 1022.52 1022.51 1022.40 1022.04 1021.65 1021.33 1021.05 1020.78 1020.43 1019.91 1019.14 1018.40 1018.03 1017.17 1016.46 1016.09 1015.50 1014.81 1014.45 1013.86 1013.32 1012.83 1012.33 1011.69
1023.85 1023.36 1023.17 1022.86 1022.44 1022.13 1022.16 1021.64 1021.17 1020.97 1020.68 1021.03 1021.42 1021.53 1022.08 1022.48 1022.57 1022.58 1022.65 1022.66 1022.52 1022.42 1022.25 1021.97 1021.57 1021.10 1020.64 1020.38 1020.11 1019.68 1019.05 1018.26 1017.80 1017.33 1016.67 1016.05 1015.29 1014.60 1013.58 1013.02 1012.87 1012.38 1011.91 1011.43
1023.07 1023.02 1022.56 1022.18 1021.65 1021.10 1021.14 1020.74 1020.45 1020.29 1020.44 1020.72 1021.10 1021.61 1022.10 1022.40 1022.51 1022.62 1022.63 1022.50 1022.32 1022.19 1021.94 1021.67 1021.37 1020.92 1020.27 1019.93 1019.64 1019.21 1018.69 1018.20 1017.79 1017.16 1016.66 1016.06 1015.44 1014.73 1013.98 1012.93 1012.09 1011.55 1011.20 1010.93
1021.75 1021.69 1021.46 1020.94 1020.75 1020.45 1020.01 1019.99 1020.23 1020.26 1020.54 1021.08 1021.50 1021.81 1022.13 1022.33 1022.45 1022.46 1022.32 1022.21 1022.05 1021.96 1021.69 1021.40 1021.10 1020.56 1020.00 1019.59 1019.18 1018.68 1018.23 1017.95 1017.58 1017.06 1016.42 1015.90 1015.29 1014.60 1013.89 1012.99 1012.24 1011.41 1010.60 1010.03
1020.96 1020.69 1020.40 1020.35 1020.07 1019.65 1019.22 1019.37 1019.66 1020.28 1020.82 1021.23 1021.64 1022.00 1022.07 1022.21 1022.35 1022.37 1022.36 1022.26 1022.23 1021.99 1021.69 1021.28 1020.83 1020.20 1019.71 1019.24 1018.60 1018.02 1017.68 1017.40 1017.06 1016.71 1016.16 1015.61 1015.15 1014.48 1013.61 1012.76 1012.08 1011.21 1010.43 1009.81
1020.77 1019.95 1019.42 1019.42 1019.25 1019.10 1018.92 1018.93 1019.23 1019.70 1020.27 1021.11 1021.63 1021.86 1022.10 1022.47 1022.54 1022.46 1022.36 1022.23 1022.16 1022.01 1021.66 1021.20 1020.58 1019.94 1019.43 1018.88 1018.21 1017.69 1017.31 1016.95 1016.61 1016.16 1015.71 1015.23 1014.69 1014.02 1013.30 1012.68 1011.69 1010.85 1010.12 1009.58
1019.81 1019.07 1018.52 1018.68 1018.68 1018.80 1018.85 1019.01 1019.42 1020.05 1020.80 1021.22 1021.63 1022.05 1022.50 1022.64 1022.56 1022.37 1022.10 1021.70 1021.55 1021.40 1021.23 1020.71 1020.19 1019.67 1019.15 1018.58 1018.06 1017.50 1016.96 1016.42 1016.02 1015.55 1014.98 1014.44 1013.93 1013.38 1012.80 1012.09 1011.35 1010.49 1009.62 1009.10
1020.02 1019.02 1018.51 1018.38 1018.51 1018.82 1019.32 1019.77 1020.25 1020.79 1021.20 1021.68 1022.27 1022.59 1022.65 1022.58 1022.33 1022.07 1021.71 1021.43 1021.19 1020.81 1020.29 1020.04 1019.78 1019.35 1018.74 1018.34 1017.85 1017.27 1016.52 1015.99 1015.48 1014.98 1014.38 1013.73 1013.11 1012.55 1011.97 1011.47 1010.88 1010.18 1009.46 1008.70
1021.28 1020.70 1020.22 1020.00 1019.99 1020.20 1020.61 1020.81 1020.93 1021.20 1021.44 1021.98 1022.58 1022.81 1022.57 1022.55 1022.12 1021.89 1021.55 1021.29 1020.84 1020.37 1019.71 1019.56 1019.29 1019.09 1018.52 1017.94 1017.41 1016.70 1016.00 1015.49 1014.91 1014.31 1013.73 1013.18 1012.60 1011.94 1011.39 1010.86 1010.27 1009.68 1009.08 1008.35
1022.64 1022.14 1021.78 1021.48 1021.23 1020.99 1021.36 1021.32 1021.36 1021.56 1021.80 1022.01 1022.44 1022.44 1022.40 1022.00 1021.73 1021.50 1021.45 1020.82 1020.19 1019.86 1019.57 1019.15 1018.80 1018.41 1018.06 1017.56 1017.01 1016.21 1015.51 1014.91 1014.32 1013.71 1013.06 1012.44 1011.85 1011.27 1010.67 1010.10 1009.55 1009.01 1008.37 1007.84
1023.13 1022.75 1022.37 1022.36 1022.17 1021.92 1021.88 1021.83 1021.56 1021.66 1021.83 1021.94 1021.96 1022.07 1022.25 1021.95 1021.45 1021.24 1020.85 1020.51 1019.70 1019.50 1019.28 1018.86 1018.42 1017.86 1017.41 1016.86 1016.33 1015.62 1014.87 1014.26 1013.67 1013.05 1012.37 1011.73 1011.11 1010.50 1009.95 1009.42 1008.83 1008.21 1007.67 1007.10
1023.02 1022.55 1022.19 1022.06 1021.81 1021.60 1021.65 1021.65 1021.47 1021.38 1021.38 1021.39 1021.60 1021.54 1021.53 1021.17 1021.10 1021.04 1020.30 1019.82 1019.44 1019.28 1018.91 1018.25 1017.83 1017.29 1016.80 1016.28 1015.71 1015.00 1014.22 1013.59 1012.98 1012.35 1011.71 1011.04 1010.40 1009.72 1009.00 1008.39 1007.94 1007.49 1006.86 1006.23
1022.69 1022.28 1021.81 1021.43 1021.27 1021.33 1021.06 1020.50 1020.69 1020.80 1020.57 1020.49 1020.79 1020.57 1020.56 1020.81 1020.49 1020.18 1019.70 1019.42 1019.04 1018.87 1018.48 1017.86 1017.28 1016.78 1016.26 1015.66 1015.08 1014.40 1013.64 1012.97 1012.31 1011.66 1010.98 1010.30 1009.71 1009.07 1008.37 1007.68 1006.96 1006.40 1005.91 1005.41
1022.37 1021.96 1021.66 1021.23 1021.02 1020.67 1020.23 1019.87 1020.20 1020.19 1019.75 1019.84 1019.99 1020.24 1019.92 1020.06 1020.41 1019.90 1019.51 1019.28 1018.86 1018.53 1018.13 1017.44 1016.93 1016.41 1015.89 1015.20 1014.49 1013.77 1013.02 1012.31 1011.62 1010.96 1010.24 1009.56 1009.01 1008.38 1007.78 1007.14 1006.40 1005.71 1005.05 1004.43
1022.01 1021.64 1021.25 1020.74 1020.36 1020.00 1019.77 1019.64 1019.61 1019.26 1019.22 1019.73 1019.88 1020.22 1020.21 1020.00 1019.82 1019.64 1019.41 1019.16 1018.80 1018.31 1017.89 1017.24 1016.69 1016.17 1015.54 1014.82 1014.03 1013.31 1012.53 1011.71 1010.94 1010.18 1009.46 1008.87 1008.29 1007.60 1006.89 1006.25 1005.79 1005.13 1004.42 1003.67
1021.84 1021.25 1020.65 1020.15 1019.73 1019.43 1019.10 1018.94 1018.89 1018.78 1018.90 1019.42 1020.06 1020.15 1020.07 1020.18 1019.96 1019.57 1019.37 1019.26 1018.65 1018.17 1017.65 1017.03 1016.42 1015.83 1015.19 1014.45 1013.57 1012.75 1011.97 1011.21 1010.39 1009.59 1008.79 1008.26 1007.54 1006.86 1006.56 1005.93 1005.18 1004.44 1003.70 1002.93
Wind_Speed
6 7 5 8 13 8 8 9 5 14 18 17 12 10 8 5 7 8 9 9 9 9 9 9 7 6 6 9 10 11 12 11 11 13 14 14 14 15 14 13 11 9 8 8
5 9 9 11 13 12 14 13 12 14 8 7 10 6 6 6 6 8 8 9 8 9 7 8 7 6 5 7 7 7 11 12 12 12 15 16 15 15 14 14 14 11 7 9
5 2 5 8 10 8 6 5 5 5 7 4 8 10 7 7 6 8 10 10 8 8 6 7 6 6 7 7 7 8 10 13 13 13 15 17 17 15 14 14 13 12 8 7
4 3 2 7 4 7 8 7 8 7 8 9 9 9 9 7 8 11 10 10 7 7 4 4 4 5 6 6 6 7 10 12 12 12 13 16 17 16 15 13 12 12 10 7
3 3 8 9 5 5 5 7 11 7 7 6 6 4 7 8 6 10 10 9 7 5 3 4 5 7 6 8 6 8 12 12 13 12 12 13 15 16 15 13 13 12 12 10
2 4 6 7 5 5 3 6 6 7 8 6 2 3 6 7 6 8 7 6 5 4 4 5 6 6 6 7 6 9 11 12 11 11 10 12 14 14 13 12 11 10 12 12
5 4 8 10 9 2 5 10 4 4 8 5 5 7 5 7 6 4 5 4 5 4 3 4 5 5 5 5 7 10 9 10 11 10 10 10 11 11 12 12 12 11 11 9
3 1 10 7 2 8 6 4 5 5 7 8 7 7 6 6 5 5 4 6 6 4 5 5 6 5 5 5 7 9 8 9 10 10 8 8 11 10 12 10 9 11 12 9
10 9 5 4 3 5 5 6 6 5 9 7 7 7 7 5 6 4 4 5 4 4 6 5 6 5 5 7 8 9 8 9 10 11 9 9 9 10 10 9 11 8 8 9
2 5 8 7 5 6 5 8 9 7 8 7 8 7 7 6 4 2 3 4 4 5 5 4 5 5 4 7 8 9 9 7 10 10 10 12 9 8 9 10 9 10 9 8
7 14 11 14 11 11 7 8 9 9 10 11 7 7 6 3 1 2 2 3 4 4 5 6 6 6 6 7 8 8 9 7 10 9 10 12 10 9 8 9 8 9 8 7
10 15 9 14 8 10 10 12 12 13 10 8 7 6 4 3 1 1 3 4 4 4 5 7 8 8 8 6 7 8 8 8 9 9 9 11 9 10 8 10 13 12 13 8
19 17 16 16 14 13 12 18 17 13 9 5 2 4 3 3 2 2 2 4 4 4 5 6 7 9 8 8 7 8 7 10 7 9 10 11 10 10 12 9 15 12 10 12
10 8 11 12 12 11 10 14 16 7 5 7 7 4 4 3 2 3 4 4 5 5 6 6 7 9 9 7 8 8 8 11 8 9 9 9 10 10 11 10 12 12 10 10
18 16 18 18 16 17 15 12 7 7 6 5 3 5 4 4 5 5 5 5 5 6 6 6 7 10 8 7 7 8 8 7 7 8 8 9 8 9 9 11 10 10 10 8
12 11 13 12 13 15 9 7 9 6 5 3 5 6 7 5 5 5 5 5 6 8 9 8 8 9 8 9 10 6 6 7 8 8 8 8 7 9 10 9 11 10 10 11
13 17 12 9 10 8 7 7 10 11 8 6 7 5 2 4 5 5 5 5 5 7 10 9 10 9 8 9 10 6 5 6 10 7 8 9 8 9 8 9 10 9 9 9
13 18 18 12 8 7 4 7 7 7 5 5 3 2 1 2 4 5 6 5 10 8 7 7 8 9 10 9 10 7 7 6 8 8 8 9 9 8 8 9 10 11 10 10
16 12 6 3 3 3 5 6 4 3 4 4 3 3 4 4 5 5 6 4 9 12 9 7 8 11 8 10 11 8 7 7 9 9 9 10 9 9 9 9 10 10 11 10
13 12 11 10 8 5 4 3 4 3 2 1 2 3 4 5 4 4 5 4 7 7 9 8 10 9 10 11 10 10 8 9 10 10 9 8 9 9 9 11 10 10 10 10
14 11 8 5 5 4 2 2 3 2 4 4 4 5 5 6 5 5 4 5 5 6 6 8 8 8 7 9 9 10 8 9 9 9 10 9 10 9 9 9 9 9 10 9
6 6 6 7 7 6 4 4 2 2 3 4 4 4 4 7 6 5 6 8 5 6 6 6 7 11 12 15 9 10 10 9 9 9 9 10 9 10 10 10 10 10 9 10
8 7 7 6 7 5 4 6 6 6 6 5 6 6 5 4 3 3 7 4 3 6 7 6 9 13 14 10 10 11 11 10 10 9 10 10 10 11 11 11 11 10 11 11
9 8 8 7 6 5 7 7 6 7 7 6 7 7 4 3 3 4 4 6 7 7 8 9 9 13 14 9 9 10 10 10 11 10 11 12 9 10 11 11 12 11 11 12
8 7 7 6 7 8 9 8 7 7 6 6 6 4 3 3 4 4 3 5 7 7 8 9 10 11 9 8 10 11 10 11 12 11 12 10 11 11 11 11 12 12 12 12
11 9 9 10 9 7 7 4 6 6 3 3 1 2 3 3 3 3 4 6 6 7 6 7 7 8 9 10 11 11 12 12 13 12 12 10 12 12 12 10 13 13 12 12
10 9 7 8 5 5 5 5 5 4 2 2 1 2 2 3 4 4 4 5 5 5 5 7 7 9 9 9 10 12 11 12 13 13 10 11 12 9 11 13 12 12 12 12
Wind_Direction
247 240 200 247 266 252 182 215 193 286 297 310 292 292 298 296 295 304 303 304 307 315 321 313 308 318 330 335 335 343 343 334 340 340 336 333 332 331 322 320 308 309 311 245
275 246 231 257 256 257 263 258 225 253 273 255 284 287 284 270 278 280 289 293 304 297 327 318 313 304 315 320 320 332 340 333 333 344 345 336 332 329 330 329 318 313 323 337
270 335 312 299 231 219 239 202 194 229 240 244 286 294 286 279 270 283 286 290 293 310 311 309 324 318 312 312 313 339 339 335 338 347 348 340 331 326 332 332 330 310 315 351
247 19 323 245 190 221 221 241 218 255 259 254 256 262 281 256 256 276 280 286 301 305 304 305 314 324 309 309 335 339 336 334 334 349 349 335 332 325 325 331 330 328 323 338
150 213 283 288 216 163 200 262 234 231 262 260 284 324 296 285 254 248 271 289 272 278 294 331 347 331 339 341 337 336 333 334 334 341 340 337 327 327 324 328 325 338 339 349
108 163 233 238 256 215 137 270 234 214 252 249 312 302 261 291 301 287 288 288 311 329 338 348 341 336 353 339 333 332 333 329 324 324 332 330 328 328 328 324 326 335 334 350
213 245 272 248 243 325 200 237 239 231 230 229 212 206 241 293 311 297 284 328 353 357 335 309 335 337 351 335 331 328 325 327 320 327 321 322 322 329 329 334 328 335 337 351
107 134 277 239 197 199 221 248 233 238 242 237 238 256 258 279 307 334 326 340 345 350 329 318 338 351 344 347 321 323 317 325 323 322 322 318 323 327 336 337 334 340 338 341
177 210 240 269 212 258 283 250 248 221 249 242 251 253 259 269 280 306 325 323 332 344 327 346 342 5 350 330 330 319 315 320 326 320 326 340 329 331 336 342 343 340 341 338
31 255 250 276 274 249 251 244 258 258 252 233 222 242 259 277 284 278 336 12 351 344 355 340 349 346 324 336 325 319 309 315 324 323 329 341 339 337 337 340 337 340 335 339
267 274 282 271 265 273 271 275 265 261 241 233 222 240 245 249 222 329 348 359 355 358 332 320 331 329 325 329 326 319 315 325 329 325 339 336 337 333 333 329 322 327 321 324
251 265 241 269 265 277 286 284 275 280 261 220 218 242 154 175 207 297 330 338 338 342 321 320 326 325 324 320 317 311 307 333 330 325 333 330 324 327 318 308 323 308 306 309
250 261 264 265 268 262 262 270 266 270 220 206 182 134 157 203 236 287 321 322 320 310 299 298 309 316 318 312 312 303 300 327 323 324 327 327 326 324 323 325 327 318 319 323
249 256 273 256 263 281 268 264 269 224 192 175 166 152 178 208 247 265 278 293 287 301 298 293 300 305 304 300 308 302 301 322 322 320 318 316 318 316 318 320 327 328 329 328
261 256 253 264 278 273 266 254 210 189 166 141 171 191 197 227 247 251 269 293 304 299 291 293 295 294 297 299 291 292 323 323 316 307 310 309 312 311 311 316 311 311 319 321
274 259 257 250 252 265 271 214 182 171 155 184 204 219 220 237 268 281 302 329 331 319 310 300 291 289 291 294 288 289 299 285 292 305 304 308 305 303 305 307 310 313 316 324
271 275 262 246 230 249 233 208 183 172 180 189 219 218 225 283 288 309 326 318 312 305 302 296 290 293 294 297 298 297 299 306 308 300 300 307 296 294 296 297 298 301 305 312
270 260 264 255 246 237 224 158 150 156 189 195 156 86 26 359 301 288 279 290 323 313 292 285 288 304 306 305 314 298 289 298 311 306 299 293 289 290 290 292 295 299 300 302
17 1 332 311 276 138 88 65 64 110 109 120 123 192 226 245 269 280 296 320 322 318 313 303 312 308 314 318 305 299 278 294 307 300 292 289 289 286 290 290 291 294 296 297
9 21 32 42 39 74 104 95 120 109 99 158 206 259 286 279 266 282 281 269 286 277 298 314 313 317 306 306 306 306 293 299 302 296 290 285 285 285 284 283 282 287 289 291
2 355 351 19 14 46 67 127 104 209 228 199 209 247 249 275 271 271 295 292 276 279 298 299 304 302 301 300 302 300 291 293 293 293 292 289 289 286 287 287 284 285 286 285
301 304 311 316 315 307 305 299 268 260 279 279 269 261 269 279 282 280 248 260 286 291 295 297 296 308 307 306 302 298 293 289 289 289 289 289 290 292 291 290 289 287 285 283
289 291 282 263 261 248 231 251 259 247 246 242 244 246 239 245 248 271 303 261 256 286 286 285 281 291 296 304 298 297 294 293 291 290 288 286 287 290 291 293 292 290 292 291
291 295 291 279 268 254 271 270 247 240 229 249 251 237 219 258 285 250 255 286 293 290 294 293 292 301 303 298 293 294 295 294 296 294 291 288 291 292 289 292 293 292 289 289
296 282 275 280 276 271 263 263 262 256 246 235 239 267 213 221 204 268 274 283 287 297 296 295 290 293 296 294 294 293 293 296 297 293 293 289 298 295 294 290 288 294 296 293
301 297 290 276 268 274 271 246 248 250 227 245 275 250 289 277 279 295 307 296 296 297 296 302 304 304 297 296 294 294 295 298 298 299 291 297 298 297 291 295 300 296 291 289
284 274 280 286 271 252 260 252 252 247 195 142 259 271 282 296 300 304 298 295 295 294 290 297 301 300 296 294 294 296 298 298 294 295 293 299 296 297 310 301 298 295 291 288